Location: Cary
(35.7910°N, 78.7810°W)
Time: 11:51:18
(UTC-05:00)

N. Korean satellite - Pass Details

Date: 28 November 2021
Orbit: 447 x 491 km, 97.3° (Epoch: 25 January)

Event Time Altitude Azimuth Distance (km) Brightness Sun altitude
Rises 05:54:50 0° 0° (N) 2,468 10.0 -13.9°
Reaches altitude 10° 05:57:00 10° 351° (N) 1,586 8.9 -13.5°
Maximum altitude 06:00:04 32° 286° (WNW) 789 7.1 -12.9°
Drops below altitude 10° 06:03:06 10° 222° (SW) 1,566 8.9 -12.3°
Sets 06:05:14 0° 212° (SSW) 2,432 10.0 -11.9°
